Helicity
97 84 83 90 117 70 77 80 122 49 95 33 37 20 46 55 139 134 138 201 284 360 396 462 507 560 652 555 524 556 562 485 397 332 313 384 428 440 432 436 398 325 132 166
127 152 96 40 88 82 68 51 39 45 42 62 128 179 190 92 178 208 194 150 115 249 385 471 496 540 539 503 490 520 493 435 378 401 484 578 620 740 722 728 604 153 157 153
102 162 150 103 65 72 56 32 28 50 53 150 286 293 266 244 219 216 187 155 91 60 136 250 352 413 384 416 493 476 473 478 551 631 752 846 919 1018 899 680 192 135 131 84
116 168 137 25 69 82 172 152 127 166 185 203 207 220 256 216 217 227 193 183 180 137 103 107 192 236 354 487 516 541 619 738 838 916 990 1079 1024 998 666 165 137 139 84 84
145 121 94 53 77 87 95 141 120 136 137 116 124 204 201 148 164 171 184 212 218 188 160 159 161 303 472 564 693 853 937 999 1002 991 1037 876 850 483 154 148 217 103 87 98
143 116 65 21 81 69 110 141 127 134 132 100 103 148 89 150 122 189 230 216 201 211 247 310 356 511 714 814 925 1027 1075 1142 1120 988 804 805 233 141 150 170 104 85 82 109
181 115 87 41 45 94 125 76 149 149 120 100 92 56 78 160 202 182 179 171 158 204 258 301 375 537 719 833 964 971 1065 955 818 442 406 143 116 136 155 122 108 92 101 110
154 119 52 75 130 91 65 122 138 122 100 133 121 176 205 217 219 209 204 191 190 228 228 230 304 412 455 441 359 349 377 349 230 162 159 161 141 140 142 124 95 94 117 117
65 31 49 33 54 104 105 138 134 151 110 140 179 193 219 238 246 240 237 230 198 206 215 227 244 248 295 235 235 195 191 187 166 164 151 139 156 151 123 105 121 119 138 137
97 88 116 168 203 211 223 229 245 221 195 211 244 248 292 288 277 273 246 249 228 237 246 253 239 205 153 133 130 141 136 125 125 142 141 130 122 116 125 124 137 150 160 163
140 165 285 305 323 353 415 427 437 428 354 322 347 326 328 328 319 303 296 284 238 191 152 140 136 144 122 106 98 110 111 115 119 126 121 118 123 131 142 143 164 170 177 192
102 124 173 228 278 313 389 359 327 358 410 396 364 360 351 339 286 257 244 203 182 146 162 158 163 148 124 93 101 109 119 135 144 146 143 142 146 144 128 127 124 139 132 166
136 213 304 366 355 306 359 319 319 358 345 367 351 324 319 279 237 209 187 180 192 182 173 162 161 160 134 117 104 99 108 123 143 150 172 190 201 206 182 176 159 171 140 116
321 416 356 295 286 322 326 320 360 380 363 330 290 284 266 290 268 256 246 210 187 184 186 166 153 151 141 142 143 138 124 114 123 129 137 143 164 189 224 227 238 287 234 165
310 284 322 361 360 340 329 371 442 405 357 371 335 308 275 275 267 263 239 198 181 181 177 169 170 166 135 105 107 105 110 116 131 134 148 167 190 200 215 211 265 302 301 263
375 349 326 335 318 331 366 346 368 340 368 333 342 322 256 240 228 215 199 185 171 174 160 149 149 144 116 101 101 102 109 118 137 154 164 174 185 199 204 195 191 203 218 194
353 278 284 311 325 319 325 354 355 316 308 307 255 216 236 214 212 201 172 143 156 154 144 133 111 106 111 107 103 104 119 137 164 177 184 185 194 195 192 167 139 136 142 165
232 232 242 249 294 362 385 382 342 295 278 209 215 214 215 212 188 171 153 160 154 153 157 123 120 105 111 132 140 140 155 170 176 184 185 190 193 184 152 121 139 155 121 63
290 288 301 320 337 359 330 315 297 215 197 183 184 183 166 152 141 125 117 152 150 144 129 118 121 108 122 148 155 152 167 180 181 168 164 161 147 147 124 145 240 220 229 178
353 369 367 360 342 290 292 207 184 212 186 163 156 153 161 141 113 122 135 151 132 85 90 122 123 121 137 157 163 160 174 169 164 147 141 131 125 125 135 143 148 148 119 85
329 321 286 270 249 197 204 192 191 185 164 159 166 151 138 129 130 123 144 124 121 98 106 144 125 109 127 136 157 156 162 142 123 118 115 111 111 124 126 120 114 88 62 58
232 227 211 190 229 234 175 162 172 173 167 166 161 155 156 153 131 132 103 104 89 98 110 128 129 139 148 146 155 146 146 124 108 95 107 118 122 116 108 96 94 87 62 20
133 161 198 190 175 180 175 160 151 145 146 137 133 133 134 112 103 102 95 105 101 134 137 142 159 175 177 156 141 137 136 107 106 95 105 109 112 105 96 78 72 68 72 69
164 164 172 182 197 188 182 163 152 135 148 138 121 82 93 100 105 98 96 124 150 158 155 171 183 178 171 144 130 121 112 103 102 101 102 93 89 75 75 68 67 70 70 66
164 182 198 202 201 211 191 204 215 194 183 179 164 127 121 115 108 99 152 153 169 171 171 179 186 177 153 135 126 119 106 97 90 95 98 71 66 62 68 62 61 60 56 57
239 283 324 347 346 327 318 283 250 207 168 160 148 151 167 172 181 192 187 173 167 175 181 163 156 158 150 124 125 101 94 86 84 89 84 58 52 57 63 59 57 55 53 49
383 422 437 435 393 341 312 298 242 204 143 136 140 138 167 194 202 187 178 177 165 166 170 151 142 140 140 134 127 104 91 78 76 86 69 53 57 65 65 58 56 58 58 51
Wind_Speed
33 37 39 44 48 43 37 37 37 44 26 42 44 44 19 13 25 22 14 20 17 18 19 20 21 21 20 17 17 17 19 20 20 19 22 25 28 30 35 37 41 47 55 58
46 46 49 62 61 49 44 39 39 44 44 49 35 31 32 21 20 26 29 29 18 17 23 25 24 22 20 21 22 21 22 21 20 23 25 25 28 34 38 46 54 58 61 61
58 51 56 71 56 51 47 47 46 50 41 21 24 27 30 29 25 29 34 37 35 26 22 20 20 20 22 23 23 21 21 22 24 24 22 25 31 41 49 56 58 60 64 62
47 43 56 48 45 36 22 31 23 19 21 19 18 24 28 31 28 31 35 39 41 38 31 24 21 20 22 21 20 19 20 23 22 19 23 31 36 44 53 55 57 60 61 57
41 41 51 48 30 18 24 26 21 16 16 17 20 26 33 34 35 35 39 42 44 47 46 41 33 27 23 22 21 22 26 26 27 29 33 40 46 53 53 51 58 58 57 61
32 40 39 42 31 25 19 25 21 19 21 22 26 40 34 35 34 38 42 46 47 47 46 45 41 28 25 25 23 24 26 27 32 34 42 54 55 59 56 52 55 57 62 62
37 43 50 39 27 25 25 30 17 20 23 30 37 36 33 31 39 41 43 44 43 45 47 44 40 33 30 27 27 25 28 34 42 45 50 50 48 47 49 55 57 61 62 60
31 38 50 26 23 29 23 17 16 23 27 32 34 33 33 35 39 41 42 42 43 43 44 43 39 36 32 31 28 31 38 44 45 48 46 44 46 49 51 54 59 57 58 61
10 25 30 21 27 13 12 16 22 23 26 28 32 33 34 37 38 41 41 41 41 41 41 42 40 37 37 36 40 43 46 42 41 42 45 45 50 53 53 53 53 55 58 61
22 33 27 24 21 20 16 19 23 26 27 29 33 34 35 37 38 38 40 42 41 43 43 43 42 43 42 41 40 41 43 44 46 49 52 53 53 52 53 53 55 56 56 58
29 25 22 26 23 18 21 24 28 33 34 31 32 36 35 35 37 39 41 43 42 43 42 42 42 42 41 41 43 48 50 52 55 57 59 60 57 55 54 52 54 57 56 58
35 21 30 26 23 20 23 27 29 30 35 37 35 33 33 36 36 38 40 40 41 41 41 43 45 47 47 47 49 53 57 60 62 64 64 63 62 62 56 56 58 54 54 57
31 22 19 16 21 23 24 27 30 32 33 33 34 33 34 34 36 36 37 38 40 42 45 48 51 54 56 59 59 62 65 69 70 70 69 68 66 67 71 67 60 54 56 59
14 14 24 25 26 23 24 27 29 31 32 32 32 33 33 33 36 39 40 40 42 46 51 53 54 57 59 63 67 70 72 73 75 76 74 73 72 73 73 74 74 67 58 57
27 33 24 17 20 23 23 23 28 31 32 34 35 34 33 33 36 39 42 44 46 50 52 54 58 63 66 69 73 76 78 80 81 81 79 79 79 80 78 79 76 75 74 70
25 24 21 21 20 21 23 25 27 30 30 32 33 33 33 34 37 41 45 47 48 52 53 59 64 68 71 74 78 79 80 82 84 85 85 86 85 84 84 85 85 80 76 74
22 28 23 23 21 23 24 26 27 27 28 29 31 31 34 36 40 43 46 47 47 51 56 63 67 70 74 79 83 84 85 86 86 85 85 84 84 83 83 84 85 82 77 65
24 20 19 18 19 20 23 25 26 26 27 27 29 31 35 38 42 46 48 46 47 55 63 65 68 74 78 81 83 83 84 85 85 87 87 87 88 86 87 87 81 76 75 65
21 19 18 18 17 19 21 23 23 23 25 26 28 32 36 39 43 45 44 50 56 63 67 67 73 77 80 82 83 81 83 86 86 86 86 87 85 82 82 83 80 78 77 70
22 19 17 18 19 18 19 20 20 23 25 25 29 33 39 42 44 44 48 54 60 63 63 69 74 78 80 81 81 82 84 84 87 85 86 84 82 81 79 77 75 75 72 67
18 15 14 15 18 20 19 18 18 22 26 29 32 35 40 45 46 47 54 59 63 65 66 69 73 76 77 79 79 82 84 81 86 85 83 81 80 80 78 76 75 74 72 69
13 14 16 16 17 18 19 19 21 24 28 32 36 40 43 47 47 52 55 60 61 65 66 68 71 75 76 78 79 80 81 78 81 79 80 78 79 79 77 77 78 75 72 70
16 16 16 15 16 18 19 21 24 27 31 35 39 42 45 47 51 58 64 60 62 65 66 69 72 72 74 76 77 78 77 75 78 76 76 76 78 77 77 79 77 76 74 72
15 17 18 19 18 20 23 27 29 31 34 38 41 42 45 50 54 54 55 59 62 64 66 68 70 71 74 75 75 74 74 72 75 73 73 76 77 74 76 76 74 74 73 71
19 20 20 20 25 30 28 30 33 35 38 43 47 47 49 50 54 54 58 62 63 65 66 67 69 71 74 73 72 72 70 71 74 70 73 76 76 74 73 70 70 70 69 70
23 24 26 29 33 35 36 36 40 41 43 49 52 53 49 50 53 57 60 63 63 66 67 66 68 71 73 71 72 67 66 69 72 66 70 73 74 71 68 65 65 65 66 68
28 29 31 35 38 38 39 43 46 50 48 52 56 53 51 52 55 58 62 66 67 67 66 66 67 69 71 69 66 61 62 67 68 64 68 72 72 66 62 59 58 59 62 64
Wind_Direction
293 291 290 285 286 291 304 308 303 301 304 305 305 306 322 324 335 338 325 310 288 278 278 280 282 284 292 280 278 283 287 295 297 304 312 320 327 329 332 335 334 332 330 329
284 285 285 276 277 294 297 302 305 299 299 297 311 323 329 331 333 343 347 344 337 306 292 285 282 281 283 279 282 286 284 287 298 312 319 325 332 336 337 337 335 331 329 328
277 285 283 271 289 289 293 293 297 290 301 332 329 333 339 344 346 340 343 345 348 346 333 315 293 281 275 279 288 285 292 305 311 317 325 333 339 338 336 334 331 329 330 331
285 290 283 298 302 302 307 307 317 325 325 343 355 355 354 350 355 350 348 346 347 347 344 335 320 299 298 299 297 296 303 314 323 329 334 337 335 337 335 332 330 330 331 332
286 287 291 295 303 301 301 313 324 341 349 1 3 353 342 349 354 354 350 348 346 344 341 339 334 331 328 326 325 326 329 334 339 340 339 342 336 330 334 332 331 331 332 331
296 293 296 298 288 305 314 300 317 335 336 340 337 322 331 344 352 350 349 348 346 347 349 348 346 350 345 342 342 341 344 346 346 344 330 331 330 321 327 332 332 332 331 332
287 289 287 289 297 303 294 304 325 339 343 336 330 336 341 347 345 348 349 351 356 355 354 356 356 358 356 354 348 352 349 341 334 328 326 327 326 327 331 332 333 332 331 332
289 288 284 296 296 292 313 335 347 339 339 342 345 348 351 350 349 351 353 356 358 360 2 2 2 2 1 352 349 340 332 328 324 326 329 330 328 329 331 332 333 335 336 336
311 306 301 301 303 343 8 349 341 348 349 351 350 350 350 349 350 351 354 359 1 2 2 360 360 356 350 347 341 337 336 336 337 336 334 333 330 329 330 332 332 331 333 335
304 295 300 309 319 326 343 348 350 351 350 349 348 348 348 349 350 353 354 354 356 356 355 354 356 353 349 349 349 348 345 343 340 336 333 331 331 330 329 329 328 327 326 329
300 310 323 318 322 334 343 345 345 346 348 350 353 349 350 351 352 353 352 353 355 354 354 353 354 354 355 354 352 345 343 339 336 334 332 330 329 328 327 325 324 323 323 325
293 294 305 311 325 335 337 338 345 349 348 351 352 353 354 353 354 353 354 355 355 357 357 354 352 350 351 350 347 343 339 337 335 332 331 329 327 326 325 322 321 321 321 322
299 312 321 335 338 339 340 343 347 349 352 352 355 356 355 355 356 358 358 359 357 355 352 349 347 347 348 347 344 339 335 332 331 329 328 327 326 324 322 321 318 316 316 317
317 328 318 316 319 338 345 349 355 358 359 359 0 0 359 0 358 356 354 356 355 353 349 347 347 347 348 346 343 340 338 336 334 332 330 328 325 321 319 316 314 312 310 310
305 315 315 330 335 337 346 352 350 349 351 351 353 355 357 359 358 355 353 351 351 350 349 348 346 344 344 342 340 337 336 334 333 331 330 328 325 322 319 317 314 312 312 313
315 322 323 324 329 334 337 337 342 344 348 351 355 356 358 358 355 352 351 351 348 347 348 346 344 343 342 341 339 337 336 335 333 332 330 328 326 324 322 321 318 315 312 312
308 307 314 318 323 327 332 338 342 345 348 351 352 354 354 354 353 352 351 351 352 350 348 346 344 343 342 340 338 336 335 335 335 335 333 331 329 327 326 324 322 318 315 312
315 318 316 316 320 329 336 341 345 350 352 355 356 356 355 353 350 349 350 353 350 348 347 346 345 343 341 341 341 340 339 338 338 337 336 336 336 335 333 329 326 325 322 318
324 325 325 328 332 337 341 344 350 355 355 357 357 355 353 352 351 351 353 349 346 343 343 345 344 344 343 342 342 342 341 340 339 339 338 337 336 337 337 339 341 341 343 343
326 332 335 339 347 351 352 353 356 354 357 356 353 350 348 348 348 348 348 347 346 344 344 344 344 343 344 344 344 344 342 341 341 340 339 339 340 339 338 338 338 337 338 339
327 343 354 358 351 353 353 355 357 355 352 351 350 350 347 345 347 346 343 341 342 344 344 345 345 345 346 346 345 344 343 343 342 342 342 341 341 341 340 338 335 333 332 332
348 346 348 350 351 352 354 355 355 354 351 349 347 345 344 344 346 346 345 342 343 344 345 345 346 347 347 347 347 346 346 346 345 345 344 344 343 341 340 338 336 334 331 328
341 342 347 350 351 351 352 349 347 346 344 342 342 342 343 343 342 339 336 343 344 345 346 346 347 349 348 348 348 349 349 348 347 347 347 347 345 343 341 338 337 335 332 329
346 344 342 346 350 345 338 339 338 338 341 342 342 342 341 340 341 344 345 345 345 346 346 347 348 349 348 349 349 350 349 350 349 349 350 348 347 346 344 343 341 339 337 333
336 336 336 337 333 330 329 333 336 337 338 339 340 340 340 341 339 342 344 344 345 346 346 347 348 348 348 348 348 348 350 351 351 351 351 350 349 349 348 348 348 346 344 340
331 331 333 333 331 331 331 330 330 333 333 333 335 338 340 342 343 343 343 344 345 345 345 346 347 347 347 347 346 348 349 350 351 354 353 353 351 352 353 353 353 352 350 346
336 332 330 330 333 333 332 329 327 326 331 333 332 336 338 339 341 342 343 343 342 343 344 345 346 347 347 347 348 349 349 350 351 355 355 353 354 356 357 359 359 358 356 352